This demonstration page uses our WeatherBlox Daily Observations layout. Learn more.

Hourly Observations for June 6, 2019

Temp ( °F °C ) Dew Point ( °F °C ) Humidity (%) Winds ( mph kmh ) Pressure ( in mb ) Visibility ( mi km ) Precip ( " mm )
12:15 am 00:15 Clear 72 22 70 21 94 94 WSW 5 7 29.8 1009 10 16.09344 0 0
12:35 am 00:35 Clear 72 22 70 21 94 94 W 6 9 29.8 1009 10 16.09344 0 0
12:55 am 00:55 Clear 70 21 70 21 100 100 W 5 7 29.8 1009 10 16.09344 0 0
1:15 am 01:15 Clear 72 22 70 21 94 94 WSW 3 6 29.77 1008 10 16.09344 0 0
1:35 am 01:35 Partly Cloudy 70 21 70 21 100 100 WSW 3 6 29.77 1008 10 16.09344 0 0
1:55 am 01:55 Clear 70 21 70 21 100 100 SW 6 9 29.77 1008 10 16.09344 0 0
2:15 am 02:15 Clear 70 21 70 21 100 100 SSW 6 9 29.74 1007 10 16.09344 0 0
2:35 am 02:35 Clear 70 21 68 20 94 94 SW 3 6 29.77 1008 10 16.09344 0 0
2:55 am 02:55 Clear 70 21 68 20 94 94 SSW 3 6 29.74 1007 10 16.09344 0 0
3:15 am 03:15 Clear 68 20 68 20 100 100 Calm 29.74 1007 10 16.09344 0 0
3:35 am 03:35 Partly Cloudy 68 20 68 20 100 100 WSW 3 6 29.74 1007 10 16.09344 0 0
3:55 am 03:55 Cloudy 70 21 68 20 94 94 Calm 29.74 1007 10 16.09344 0 0
4:15 am 04:15 Cloudy 70 21 68 20 94 94 Calm 29.74 1007 10 16.09344 0 0
4:35 am 04:35 Cloudy 68 20 68 20 100 100 Calm 29.74 1007 10 16.09344 0 0
4:55 am 04:55 Mostly Cloudy 68 20 68 20 100 100 Calm 29.74 1007 10 16.09344 0 0
5:15 am 05:15 Mostly Cloudy 68 20 68 20 100 100 Calm 29.74 1007 10 16.09344 0 0
5:35 am 05:35 Mostly Cloudy 70 21 68 20 94 94 Calm 29.77 1008 10 16.09344 0 0
5:55 am 05:55 Mostly Cloudy 68 20 68 20 100 100 Calm 29.77 1008 10 16.09344 0 0
6:15 am 06:15 Mostly Cloudy 68 20 68 20 100 100 Calm 29.77 1008 10 16.09344 0 0
6:35 am 06:35 Cloudy 68 20 68 20 100 100 W 5 7 29.77 1008 10 16.09344 0 0
6:55 am 06:55 Cloudy 70 21 68 20 94 94 W 5 7 29.77 1008 10 16.09344 0 0
7:15 am 07:15 Mostly Cloudy 70 21 68 20 94 94 WNW 3 6 29.77 1008 10 16.09344 0 0
7:35 am 07:35 Partly Cloudy 72 22 70 21 94 94 NW 3 6 29.8 1009 10 16.09344 0 0
7:55 am 07:55 Sunny 72 22 68 20 88 88 WNW 5 7 29.8 1009 10 16.09344 0 0
8:15 am 08:15 Sunny 73 23 70 21 89 89 WNW 5 7 29.8 1009 10 16.09344 0 0
8:35 am 08:35 Sunny 75 24 70 21 83 83 NW 5 7 29.8 1009 10 16.09344 0 0
8:55 am 08:55 Sunny 77 25 70 21 79 79 WNW 7 11 29.8 1009 10 16.09344 0 0
9:15 am 09:15 Sunny 79 26 70 21 74 74 WNW 7 11 29.8 1009 10 16.09344 0 0
9:35 am 09:35 Sunny 79 26 68 20 70 70 WNW 10 17 29.8 1009 10 16.09344 0 0
9:55 am 09:55 Sunny 79 26 68 20 70 70 W 8 13 29.8 1009 10 16.09344 0 0
10:15 am 10:15 Partly Cloudy 81 27 70 21 70 70 WNW 13 20 29.8 1009 10 16.09344 0 0
10:35 am 10:35 Partly Cloudy with Thunderstorms 81 27 70 21 70 70 WNW 12 19 29.8 1009 10 16.09344 0 0
10:55 am 10:55 Sunny 81 27 70 21 70 70 NW 13 20 29.8 1009 10 16.09344 0 0
11:15 am 11:15 Partly Cloudy 81 27 70 21 70 70 NW 15 24 29.8 1009 10 16.09344 0 0
11:35 am 11:35 Partly Cloudy 82 28 68 20 62 62 NW 13 20 29.8 1009 10 16.09344 0 0
11:55 am 11:55 Sunny 82 28 68 20 62 62 NNW 14 22 29.83 1010 10 16.09344 0 0
12:15 pm 12:15 Partly Cloudy 84 29 70 21 62 62 NNW 13 20 29.8 1009 10 16.09344 0 0
12:35 pm 12:35 Mostly Cloudy 82 28 68 20 62 62 NNW 14 22 29.83 1010 10 16.09344 0 0
12:55 pm 12:55 Mostly Cloudy 84 29 68 20 58 58 NNW 10 17 29.77 1008 10 16.09344 0 0
1:15 pm 13:15 Mostly Cloudy 84 29 68 20 58 58 NW 14 22 29.8 1009 7 11.265408 0 0
1:35 pm 13:35 Mostly Cloudy 84 29 68 20 58 58 NNW 14 22 29.8 1009 10 16.09344 0 0
1:55 pm 13:55 Mostly Cloudy 82 28 68 20 62 62 NNW 10 17 29.83 1010 10 16.09344 0 0
2:15 pm 14:15 Mostly Cloudy 86 30 66 19 52 52 NNW 15 24 29.77 1008 10 16.09344 0 0
2:35 pm 14:35 Cloudy 84 29 68 20 58 58 N 10 17 29.77 1008 10 16.09344 0 0
2:55 pm 14:55 Mostly Cloudy 86 30 64 18 49 49 NNW 12 19 29.77 1008 10 16.09344 0 0
3:15 pm 15:15 Sunny 86 30 68 20 55 55 NW 13 20 29.77 1008 10 16.09344 0 0
3:35 pm 15:35 Sunny 86 30 68 20 55 55 NW 13 20 29.77 1008 10 16.09344 0 0
3:55 pm 15:55 Partly Cloudy 88 31 66 19 49 49 N 7 11 29.77 1008 10 16.09344 0 0
4:15 pm 16:15 Mostly Cloudy 86 30 68 20 55 55 N 9 15 29.77 1008 10 16.09344 0 0
4:35 pm 16:35 Mostly Cloudy 84 29 68 20 58 58 N 7 11 29.77 1008 10 16.09344 0 0
4:55 pm 16:55 Mostly Cloudy 86 30 68 20 55 55 NNW 8 13 29.77 1008 10 16.09344 0 0
5:15 pm 17:15 Partly Cloudy 86 30 68 20 55 55 N 6 9 29.77 1008 10 16.09344 0 0
5:55 pm 17:55 Partly Cloudy 86 30 68 20 55 55 NNE 6 9 29.77 1008 10 16.09344 0 0
6:15 pm 18:15 Sunny 86 30 66 19 52 52 N 7 11 29.77 1008 10 16.09344 0 0
6:35 pm 18:35 Sunny 86 30 66 19 52 52 NW 5 7 29.77 1008 10 16.09344 0 0
7:15 pm 19:15 Sunny 86 30 64 18 49 49 N 3 6 29.77 1008 10 16.09344 0 0
7:35 pm 19:35 Sunny 84 29 66 19 55 55 N 3 6 29.8 1009 10 16.09344 0 0
7:55 pm 19:55 Sunny 82 28 64 18 55 55 N 3 6 29.83 1010 10 16.09344 0 0
8:15 pm 20:15 Sunny 82 28 66 19 58 58 NNE 3 6 29.83 1010 10 16.09344 0 0
8:35 pm 20:35 Clear 82 28 66 19 58 58 NNE 3 6 29.83 1010 10 16.09344 0 0
8:55 pm 20:55 Clear 81 27 66 19 62 62 Calm 29.83 1010 10 16.09344 0 0
9:15 pm 21:15 Clear 79 26 68 20 70 70 Calm 29.83 1010 10 16.09344 0 0
9:35 pm 21:35 Clear 77 25 68 20 74 74 Calm 29.85 1011 10 16.09344 0 0
9:55 pm 21:55 Clear 75 24 68 20 78 78 Calm 29.85 1011 10 16.09344 0 0
10:15 pm 22:15 Clear 77 25 70 21 79 79 N 3 6 29.85 1011 10 16.09344 0 0
10:35 pm 22:35 Clear 73 23 70 21 89 89 NNW 3 6 29.85 1011 10 16.09344 0 0
10:55 pm 22:55 Clear 72 22 70 21 94 94 NNW 3 6 29.85 1011 10 16.09344 0 0
11:15 pm 23:15 Clear 72 22 70 21 94 94 Calm 29.85 1011 10 16.09344 0 0
11:35 pm 23:35 Clear 72 22 68 20 88 88 NNW 5 7 29.85 1011 10 16.09344 0 0
11:55 pm 23:55 Clear 73 23 68 20 83 83 N 6 9 29.85 1011 10 16.09344 0 0

Powered by AerisWeather